Location: Chemnitz
(49.5500°N, 11.5830°E)
Time: 10:40:33
(UTC+01:00)

ISS - Pass Details

Date: 08 January 2018
Orbit: 402 x 406 km, 51.6° (Epoch: 16 January)

Event Time Altitude Azimuth Distance (km) Brightness Sun altitude
Exits shadow 05:07:49 17° 72° (ENE) 1,118 -0.9 -28.3°
Drops below altitude 10° 05:08:42 10° 76° (ENE) 1,467 -0.1 -28.2°
Sets 05:10:48 0° 81° (E) 2,329 1.2 -27.9°
